| time (UTC) | temp F | wind direction | speed MPH | gust MPH | rain 1hr in | rain 24hr in | rain mn in | humidity % | barometer mb |
| 20260503081530 | 72 | 230 | 1.0 | 7.0 | 0.00 | 0.00 | 0.00 | 62 | 1011.3 |
| 20260503081049 | 72 | 224 | 2.0 | 7.0 | 0.00 | 0.00 | 0.00 | 63 | 1011.2 |
| 20260503080604 | 72 | 223 | 2.0 | 7.0 | 0.00 | 0.00 | 0.00 | 63 | 1011.1 |
| 20260503072547 | 72 | 163 | 2.0 | 7.0 | 0.00 | 0.00 | 0.00 | 63 | 1010.8 |
| 20260503072106 | 72 | 163 | 2.0 | 7.0 | 0.00 | 0.00 | 0.00 | 63 | 1010.9 |
| 20260503071603 | 73 | 163 | 3.0 | 5.0 | 0.00 | 0.00 | 0.00 | 63 | 1010.8 |
| 20260503071038 | 73 | 163 | 2.0 | 6.0 | 0.00 | 0.00 | 0.00 | 63 | 1010.8 |
| 20260503070553 | 73 | 163 | 3.0 | 7.0 | 0.00 | 0.00 | 0.00 | 63 | 1010.8 |
| 20260503055031 | 75 | 255 | 2.0 | 8.0 | 0.00 | 0.00 | 0.00 | 60 | 1011.1 |
| 20260503054529 | 75 | 163 | 3.0 | 13.0 | 0.00 | 0.00 | 0.00 | 61 | 1011.0 |
| 20260503054048 | 74 | 18 | 4.0 | 13.0 | 0.00 | 0.00 | 0.00 | 62 | 1011.2 |
| 20260503053546 | 74 | 38 | 3.0 | 8.0 | 0.00 | 0.00 | 0.00 | 63 | 1011.4 |
| 20260503053102 | 74 | 1 | 2.0 | 7.0 | 0.00 | 0.00 | 0.00 | 63 | 1011.6 |
| 20260503052533 | 74 | 40 | 4.0 | 7.0 | 0.00 | 0.00 | 0.00 | 64 | 1011.8 |
| 20260503052051 | 74 | 354 | 3.0 | 6.0 | 0.00 | 0.00 | 0.00 | 64 | 1012.0 |
| 20260503051529 | 74 | 343 | 1.0 | 5.0 | 0.00 | 0.00 | 0.00 | 63 | 1012.0 |
| 20260503051043 | 74 | 311 | 0.0 | 1.0 | 0.00 | 0.00 | 0.00 | 61 | 1012.1 |
| 20260503050551 | 74 | 357 | 2.0 | 0.0 | 0.00 | 0.00 | 0.00 | 60 | 1012.0 |
| 20260503050044 | 74 | 351 | 3.0 | 0.0 | 0.00 | 0.00 | 0.00 | 60 | 1012.1 |
| 20260503045901 | 74 | 336 | 3.0 | 0.0 | 0.00 | 0.00 | 0.00 | 60 | 1012.2 |